GW3385 Weather Reports


Display with metric or nautical units.
time (UTC)temp
F
wind
direction
speed
MPH
gust
MPH
rain 1hr
in
rain 24hr
in
rain mn
in
humidity
%
barometer
mb
20260902202055 75 241 4.0 11.0 0.00 0.00 0.00 64 1014.7
20260902201615 75 249 5.0 11.0 0.00 0.00 0.00 64 1014.8
20260902201059 75 253 5.0 10.0 0.00 0.00 0.00 64 1014.9
20260902200554 74 191 5.0 10.0 0.00 0.00 0.00 64 1014.8
20260902200105 74 275 5.0 11.0 0.00 0.00 0.00 66 1014.9
20260902195555 74 311 5.0 12.0 0.00 0.00 0.00 66 1014.8
20260902195055 74 296 5.0 12.0 0.00 0.00 0.00 67 1014.9
20260902194606 74 271 7.0 12.0 0.00 0.00 0.00 67 1014.9
20260902194055 74 289 4.0 10.0 0.00 0.00 0.00 67 1014.8
20260902193555 74 195 5.0 11.0 0.00 0.00 0.00 68 1015.0
20260902193102 74 260 6.0 11.0 0.00 0.00 0.00 68 1014.9
20260902192557 74 265 4.0 10.0 0.00 0.00 0.00 68 1015.0
20260902192055 74 296 4.0 12.0 0.00 0.00 0.00 68 1014.9
20260902191555 74 288 6.0 12.0 0.00 0.00 0.00 68 1015.1
20260902191054 74 226 4.0 12.0 0.00 0.00 0.00 68 1015.1
20260902190555 73 158 3.0 10.0 0.00 0.00 0.00 69 1015.1
20260902190058 73 189 4.0 11.0 0.00 0.00 0.00 70 1015.1
20260902185558 73 161 5.0 11.0 0.00 0.00 0.00 70 1015.1
20260902185056 73 215 6.0 10.0 0.00 0.00 0.00 70 1015.2
20260902184557 73 220 3.0 12.0 0.00 0.00 0.00 70 1015.2
20260902184055 73 270 6.0 12.0 0.00 0.00 0.00 70 1015.3
20260902183553 73 267 3.0 9.0 0.00 0.00 0.00 70 1015.4
20260902183113 73 281 2.0 10.0 0.00 0.00 0.00 71 1015.3
20260902182553 73 172 3.0 10.0 0.00 0.00 0.00 70 1015.3
20260902182056 73 213 5.0 9.0 0.00 0.00 0.00 70 1015.3
20260902181612 73 201 2.0 9.0 0.00 0.00 0.00 70 1015.3
20260902181052 73 239 5.0 9.0 0.00 0.00 0.00 69 1015.3
20260902180553 73 100 2.0 8.0 0.00 0.00 0.00 69 1015.4
20260902180057 73 177 3.0 8.0 0.00 0.00 0.00 69 1015.4
20260902175552 73 212 3.0 7.0 0.00 0.00 0.00 68 1015.4
20260902175054 74 200 2.0 6.0 0.00 0.00 0.00 67 1015.3
20260902174608 74 258 0.0 5.0 0.00 0.00 0.00 65 1015.3
20260902174054 74 142 1.0 9.0 0.00 0.00 0.00 66 1015.3
20260902173554 73 161 1.0 9.0 0.00 0.00 0.00 67 1015.5
20260902173117 73 145 2.0 7.0 0.00 0.00 0.00 68 1015.5
20260902172552 72 124 1.0 7.0 0.00 0.00 0.00 69 1015.6
20260902172052 72 225 1.0 7.0 0.00 0.00 0.00 68 1015.5
20260902171558 72 156 3.0 7.0 0.00 0.00 0.00 69 1015.5
20260902171053 73 242 2.0 7.0 0.00 0.00 0.00 69 1015.5
20260902170553 72 107 0.0 6.0 0.00 0.00 0.00 70 1015.4
20260902165553 71 0 2.0 6.0 0.00 0.00 0.00 71 1015.4
20260902165052 71 40 2.0 7.0 0.00 0.00 0.00 71 1015.4
20260902164606 71 122 1.0 7.0 0.00 0.00 0.00 72 1015.3
20260902164055 71 92 0.0 8.0 0.00 0.00 0.00 72 1015.2
20260902163552 71 0 2.0 8.0 0.00 0.00 0.00 72 1015.3
20260902163100 71 98 2.0 8.0 0.00 0.00 0.00 72 1015.2
20260902162552 71 107 2.0 7.0 0.00 0.00 0.00 72 1015.2
20260902162054 71 38 0.0 4.0 0.00 0.00 0.00 74 1015.2
20260902161607 70 97 1.0 6.0 0.00 0.00 0.00 74 1015.3
20260902161052 70 107 2.0 6.0 0.00 0.00 0.00 74 1015.2
20260902160554 70 111 1.0 6.0 0.00 0.00 0.00 74 1015.2
20260902160103 70 275 1.0 6.0 0.00 0.00 0.00 73 1015.2
20260902155553 70 168 0.0 3.0 0.00 0.00 0.00 74 1015.2
20260902155053 70 90 0.0 3.0 0.00 0.00 0.00 74 1015.2
20260902154605 70 0 0.0 4.0 0.00 0.00 0.00 76 1015.2
20260902154054 69 0 1.0 4.0 0.00 0.00 0.00 76 1015.1
20260902153556 70 245 1.0 4.0 0.00 0.00 0.00 74 1015.1
20260902153109 70 0 0.0 0.0 0.00 0.00 0.00 76 1015.1
20260902152558 70 0 0.0 0.0 0.00 0.00 0.00 77 1015.2
20260902152054 69 0 0.0 0.0 0.00 0.00 0.00 79 1015.1
20260902151601 68 0 0.0 0.0 0.00 0.00 0.00 80 1015.1
20260902151058 68 0 0.0 0.0 0.00 0.00 0.00 81 1015.1
20260902150555 67 0 0.0 0.0 0.00 0.00 0.00 82 1015.0
20260902145555 66 0 0.0 0.0 0.00 0.00 0.00 85 1015.2
20260902145055 65 0 0.0 0.0 0.00 0.00 0.00 87 1015.1
20260902144557 64 0 0.0 0.0 0.00 0.00 0.00 88 1015.1
20260902144054 64 0 0.0 0.0 0.00 0.00 0.00 89 1015.2
20260902143555 63 0 0.0 0.0 0.00 0.00 0.00 89 1015.1
20260902143109 63 0 0.0 0.0 0.00 0.00 0.00 91 1015.1
20260902142552 62 0 0.0 0.0 0.00 0.00 0.00 91 1015.0
20260902142052 62 0 0.0 0.0 0.00 0.00 0.00 90 1015.0
20260902141602 62 0 0.0 2.0 0.00 0.00 0.00 91 1015.0
20260902141054 62 0 0.0 3.0 0.00 0.00 0.00 91 1014.8
20260902140553 62 0 1.0 3.0 0.00 0.00 0.00 91 1014.7
20260902140056 61 327 0.0 3.0 0.00 0.00 0.00 91 1014.6
20260902135552 61 0 1.0 4.0 0.00 0.00 0.00 91 1014.6
20260902135052 61 343 2.0 4.0 0.00 0.00 0.00 90 1014.5
20260902134555 61 352 1.0 5.0 0.00 0.00 0.00 91 1014.5
20260902134052 61 336 2.0 5.0 0.00 0.00 0.00 91 1014.5
20260902133555 61 345 2.0 5.0 0.00 0.00 0.00 91 1014.5
20260902133101 61 335 2.0 5.0 0.00 0.00 0.00 90 1014.5
20260902132552 61 336 2.0 4.0 0.00 0.00 0.00 90 1014.6
20260902132053 61 331 1.0 4.0 0.00 0.00 0.00 90 1014.5
20260902131559 61 0 2.0 4.0 0.00 0.00 0.00 90 1014.5
20260902131053 61 0 0.0 4.0 0.00 0.00 0.00 90 1014.6
20260902130552 61 0 2.0 4.0 0.00 0.00 0.00 90 1014.3
20260902130105 61 352 0.0 4.0 0.00 0.00 0.00 91 1014.3
20260902125553 61 0 0.0 2.0 0.00 0.00 0.00 90 1014.3
20260902125055 61 0 0.0 2.0 0.00 0.00 0.00 90 1014.4
20260902124554 61 0 0.0 3.0 0.00 0.00 0.00 90 1014.4
20260902124052 61 352 0.0 4.0 0.00 0.00 0.00 90 1014.3
20260902123556 61 0 0.0 4.0 0.00 0.00 0.00 90 1014.3
20260902123109 61 335 1.0 4.0 0.00 0.00 0.00 90 1014.3
20260902122555 61 0 0.0 2.0 0.00 0.00 0.00 90 1014.5
20260902122052 61 0 0.0 2.0 0.00 0.00 0.00 90 1014.5
20260902121559 61 332 0.0 4.0 0.00 0.00 0.00 90 1014.5
20260902121054 61 0 0.0 4.0 0.00 0.00 0.00 90 1014.5
20260902120557 61 0 0.0 4.0 0.00 0.00 0.00 90 1014.5
20260902120059 61 0 0.0 0.0 0.00 0.00 0.00 89 1014.6
20260902115556 61 0 0.0 0.0 0.00 0.00 0.00 89 1014.6
20260902115054 61 0 0.0 0.0 0.00 0.00 0.00 89 1014.6
20260902114555 61 0 0.0 0.0 0.00 0.00 0.00 89 1014.6
20260902114055 61 0 0.0 0.0 0.00 0.00 0.00 89 1014.5
20260902113552 61 0 0.0 0.0 0.00 0.00 0.00 89 1014.5
20260902113101 61 0 0.0 0.0 0.00 0.00 0.00 89 1014.6
20260902112552 62 0 0.0 0.0 0.00 0.00 0.00 88 1014.6
20260902112055 62 0 0.0 0.0 0.00 0.00 0.00 89 1014.5
20260902111603 62 0 0.0 0.0 0.00 0.00 0.00 89 1014.5
20260902111055 62 0 0.0 0.0 0.00 0.00 0.00 89 1014.5
20260902110555 62 0 0.0 0.0 0.00 0.00 0.00 89 1014.5
20260902110103 62 0 0.0 0.0 0.00 0.00 0.00 88 1014.6
20260902105554 62 0 0.0 0.0 0.00 0.00 0.00 88 1014.5
20260902105054 62 0 0.0 0.0 0.00 0.00 0.00 88 1014.5
20260902104613 62 0 0.0 0.0 0.00 0.00 0.00 88 1014.5
20260902104055 62 0 0.0 2.0 0.00 0.00 0.00 88 1014.6
20260902103554 62 0 0.0 2.0 0.00 0.00 0.00 88 1014.6
20260902103109 62 0 0.0 3.0 0.00 0.00 0.00 88 1014.5
20260902102554 62 0 0.0 3.0 0.00 0.00 0.00 88 1014.6
20260902102055 62 0 0.0 3.0 0.00 0.00 0.00 88 1014.5
20260902101607 62 0 0.0 2.0 0.00 0.00 0.00 88 1014.5
20260902101057 62 0 0.0 2.0 0.00 0.00 0.00 88 1014.5
20260902100555 62 0 0.0 3.0 0.00 0.00 0.00 88 1014.5
20260902100100 62 65 1.0 4.0 0.00 0.00 0.00 88 1014.5
20260902095555 62 66 1.0 4.0 0.00 0.00 0.00 88 1014.5
20260902095056 62 72 0.0 3.0 0.00 0.00 0.00 88 1014.6
20260902094555 62 0 0.0 3.0 0.00 0.00 0.00 88 1014.6
20260902094055 62 0 1.0 3.0 0.00 0.00 0.00 88 1014.6
20260902093555 62 0 0.0 3.0 0.00 0.00 0.00 88 1014.6
20260902093054 62 0 0.0 0.0 0.00 0.00 0.00 88 1014.5
20260902092558 62 0 0.0 0.0 0.00 0.00 0.00 88 1014.6
20260902092056 62 0 0.0 0.0 0.00 0.00 0.00 88 1014.5
20260902091601 62 0 0.0 0.0 0.00 0.00 0.00 87 1014.6
20260902091055 62 0 0.0 0.0 0.00 0.00 0.00 87 1014.6
20260902090555 62 0 0.0 0.0 0.00 0.00 0.00 87 1014.5
20260902090057 62 0 0.0 0.0 0.00 0.00 0.00 87 1014.5
20260902085554 62 0 0.0 0.0 0.00 0.00 0.00 87 1014.5
20260902085054 62 0 0.0 0.0 0.00 0.00 0.00 87 1014.6
20260902084558 62 0 0.0 0.0 0.00 0.00 0.00 87 1014.6
20260902084055 62 0 0.0 0.0 0.00 0.00 0.00 87 1014.6
20260902083557 62 0 0.0 0.0 0.00 0.00 0.00 87 1014.6
20260902083057 62 0 0.0 0.0 0.00 0.00 0.00 86 1014.5
20260902082554 62 0 0.0 0.0 0.00 0.00 0.00 86 1014.5
20260902082055 62 0 0.0 0.0 0.00 0.00 0.00 86 1014.6
20260902081601 62 0 0.0 0.0 0.00 0.00 0.00 86 1014.6
20260902081055 62 0 0.0 0.0 0.00 0.00 0.00 85 1014.5
20260902080555 63 0 0.0 0.0 0.00 0.00 0.00 85 1014.6
20260902080059 63 0 0.0 0.0 0.00 0.00 0.00 85 1014.5
20260902075555 63 0 0.0 0.0 0.00 0.00 0.00 85 1014.5
20260902075055 63 0 0.0 3.0 0.00 0.00 0.00 85 1014.6
20260902074556 63 0 0.0 3.0 0.00 0.00 0.00 85 1014.5
20260902074055 63 0 1.0 3.0 0.00 0.00 0.00 85 1014.5
20260902073555 63 0 0.0 2.0 0.00 0.00 0.00 85 1014.5
20260902073105 63 0 0.0 2.0 0.00 0.00 0.00 85 1014.5
20260902072556 63 55 0.0 2.0 0.00 0.00 0.00 84 1014.5
20260902072058 63 26 0.0 2.0 0.00 0.00 0.00 84 1014.5
20260902071601 63 17 0.0 2.0 0.00 0.00 0.00 84 1014.5
20260902071056 63 0 0.0 0.0 0.00 0.00 0.00 84 1014.3
20260902070556 63 0 0.0 0.0 0.00 0.00 0.00 84 1014.3
20260902065557 63 0 0.0 2.0 0.00 0.00 0.00 84 1014.4
20260902065058 63 0 0.0 2.0 0.00 0.00 0.00 83 1014.3
20260902064604 63 0 0.0 2.0 0.00 0.00 0.00 83 1014.3
20260902064057 63 0 0.0 2.0 0.00 0.00 0.00 84 1014.3
20260902063555 63 0 0.0 2.0 0.00 0.00 0.00 84 1014.3
20260902063113 63 0 0.0 0.0 0.00 0.00 0.00 83 1014.2
20260902062554 63 0 0.0 0.0 0.00 0.00 0.00 83 1014.3
20260902062056 63 0 0.0 1.0 0.00 0.00 0.00 84 1014.3
20260902061625 63 0 0.0 1.0 0.00 0.00 0.00 83 1014.3
20260902061101 63 0 0.0 1.0 0.00 0.00 0.00 83 1014.3
20260902060555 63 0 0.0 0.0 0.00 0.00 0.00 83 1014.3
20260902060109 63 0 0.0 0.0 0.00 0.00 0.00 83 1014.2
20260902055554 63 0 0.0 0.0 0.00 0.00 0.00 83 1014.2
20260902055055 63 0 0.0 2.0 0.00 0.00 0.00 82 1014.2
20260902054556 63 0 0.0 2.0 0.00 0.00 0.00 82 1014.2
20260902054054 64 0 0.0 2.0 0.00 0.00 0.00 82 1014.2
20260902053554 64 0 0.0 1.0 0.00 0.00 0.00 82 1014.1
20260902053059 64 0 0.0 1.0 0.00 0.00 0.00 82 1014.1
20260902052558 64 0 0.0 0.0 0.00 0.00 0.00 82 1014.2
20260902052055 64 0 0.0 1.0 0.00 0.00 0.00 82 1014.2
20260902051614 64 0 0.0 1.0 0.00 0.00 0.00 82 1014.2
20260902051055 64 0 0.0 0.0 0.00 0.00 0.00 82 1014.1
20260902050558 64 0 0.0 1.0 0.00 0.00 0.00 82 1014.1
20260902045554 64 0 0.0 0.0 0.00 0.00 0.00 82 1014.0
20260902045051 65 0 0.0 0.0 0.00 0.00 0.00 81 1013.9
20260902044621 65 0 0.0 0.0 0.00 0.00 0.00 81 1013.9
20260902044052 65 0 0.0 2.0 0.00 0.00 0.00 81 1013.8
20260902043554 65 0 0.0 2.0 0.00 0.00 0.00 81 1013.7
20260902043055 65 0 0.0 2.0 0.00 0.00 0.00 80 1013.7
20260902042551 65 0 0.0 0.0 0.00 0.00 0.00 80 1013.6
20260902042055 65 0 0.0 0.0 0.00 0.00 0.00 80 1013.5
20260902041605 66 0 0.0 2.0 0.00 0.00 0.00 79 1013.5
20260902041057 66 0 0.0 2.0 0.00 0.00 0.00 79 1013.4
20260902040555 66 0 0.0 3.0 0.00 0.00 0.00 79 1013.4
20260902035554 66 335 0.0 2.0 0.00 0.00 0.00 78 1013.4
20260902035054 67 0 0.0 2.0 0.00 0.00 0.00 78 1013.3
20260902034601 67 0 0.0 0.0 0.00 0.00 0.00 77 1013.3
20260902034054 67 0 0.0 0.0 0.00 0.00 0.00 77 1013.3
20260902033551 67 0 0.0 0.0 0.00 0.00 0.00 77 1013.3
20260902033100 67 0 0.0 2.0 0.00 0.00 0.00 77 1013.2
20260902032557 67 0 0.0 4.0 0.00 0.00 0.00 76 1013.2
20260902032055 68 0 1.0 4.0 0.00 0.00 0.00 76 1013.1
20260902031621 68 0 0.0 6.0 0.00 0.00 0.00 76 1013.2
20260902031055 68 0 2.0 6.0 0.00 0.00 0.00 76 1013.2
20260902030555 68 264 2.0 6.0 0.00 0.00 0.00 77 1013.1
20260902025555 68 0 0.0 10.0 0.00 0.00 0.00 77 1013.0
20260902025055 68 292 4.0 10.0 0.00 0.00 0.00 76 1013.0
20260902024605 68 273 1.0 10.0 0.00 0.00 0.00 76 1012.9
20260902024054 68 166 3.0 10.0 0.00 0.00 0.00 76 1012.9
20260902023554 68 269 5.0 9.0 0.00 0.00 0.00 76 1012.8
20260902023103 68 276 4.0 9.0 0.00 0.00 0.00 75 1012.9
20260902022558 69 282 2.0 7.0 0.00 0.00 0.00 75 1012.7
20260902022051 69 181 2.0 6.0 0.00 0.00 0.00 75 1012.6
20260902021603 69 261 2.0 8.0 0.00 0.00 0.00 75 1012.7
20260902021055 69 240 2.0 8.0 0.00 0.00 0.00 74 1012.8
20260902020555 69 176 3.0 7.0 0.00 0.00 0.00 75 1012.7
20260902020101 69 239 4.0 10.0 0.00 0.00 0.00 75 1012.7
20260902015551 69 188 3.0 10.0 0.00 0.00 0.00 75 1012.7
20260902015055 70 297 6.0 10.0 0.00 0.00 0.00 74 1012.7
20260902014559 70 302 4.0 9.0 0.00 0.00 0.00 75 1012.8
20260902014056 70 306 3.0 10.0 0.00 0.00 0.00 75 1012.8
20260902013555 70 278 4.0 10.0 0.00 0.00 0.00 74 1012.7
20260902013105 71 277 5.0 9.0 0.00 0.00 0.00 74 1012.8
20260902012554 71 233 4.0 9.0 0.00 0.00 0.00 74 1012.8
20260902012056 71 146 5.0 9.0 0.00 0.00 0.00 73 1012.8
20260902011558 71 206 3.0 9.0 0.00 0.00 0.00 73 1012.7
20260902011058 72 261 3.0 9.0 0.00 0.00 0.00 73 1012.8
20260902010554 72 269 2.0 9.0 0.00 0.00 0.00 73 1012.9
20260902010105 71 235 3.0 11.0 0.00 0.00 0.00 73 1012.9
20260902005554 71 269 6.0 11.0 0.00 0.00 0.00 72 1012.9
20260902005056 71 283 3.0 11.0 0.00 0.00 0.00 72 1013.0
20260902004558 72 271 6.0 11.0 0.00 0.00 0.00 73 1013.0
20260902004056 72 267 4.0 15.0 0.00 0.00 0.00 72 1013.1
20260902003554 72 271 6.0 15.0 0.00 0.00 0.00 71 1013.1
20260902003105 72 276 7.0 12.0 0.00 0.00 0.00 71 1013.1
20260902002554 72 273 3.0 10.0 0.00 0.00 0.00 72 1013.1
20260902002055 72 189 5.0 11.0 0.00 0.00 0.00 70 1013.0
20260902001603 73 198 4.0 11.0 0.00 0.00 0.00 71 1013.0
20260902001054 73 180 4.0 10.0 0.00 0.00 0.00 71 1013.1
20260902000554 73 189 4.0 10.0 0.00 0.00 0.00 72 1013.0
20260902000055 73 185 5.0 10.0 0.00 0.00 0.00 72 1013.2
20260901235554 73 244 3.0 11.0 0.00 0.00 0.00 71 1013.1
20260901235055 73 194 5.0 11.0 0.00 0.00 0.00 70 1013.1
20260901234608 73 173 6.0 11.0 0.00 0.00 0.00 70 1013.2
20260901234053 73 256 5.0 11.0 0.00 0.00 0.00 71 1013.3
20260901233552 73 178 7.0 11.0 0.00 0.00 0.00 68 1013.2
20260901233104 73 288 5.0 12.0 0.00 0.00 0.00 71 1013.2
20260901232555 72 205 5.0 13.0 0.00 0.00 0.00 72 1013.2
20260901232059 72 254 6.0 14.0 0.00 0.00 0.00 72 1013.3
20260901231607 72 254 8.0 14.0 0.00 0.00 0.00 70 1013.2
20260901231054 73 287 6.0 14.0 0.00 0.00 0.00 69 1013.3
20260901230555 74 215 5.0 14.0 0.00 0.00 0.00 69 1013.4
20260901230108 74 250 4.0 13.0 0.00 0.00 0.00 70 1013.3
20260901225554 74 192 6.0 13.0 0.00 0.00 0.00 70 1013.5
20260901225054 74 310 5.0 11.0 0.00 0.00 0.00 70 1013.5
20260901224555 74 227 5.0 11.0 0.00 0.00 0.00 70 1013.5
20260901224054 74 252 5.0 12.0 0.00 0.00 0.00 71 1013.6
20260901223556 73 327 6.0 12.0 0.00 0.00 0.00 70 1013.5
20260901223100 74 245 7.0 13.0 0.00 0.00 0.00 69 1013.6
20260901222557 74 159 8.0 15.0 0.00 0.00 0.00 66 1013.5
20260901222057 74 187 6.0 15.0 0.00 0.00 0.00 69 1013.7
20260901221612 75 169 8.0 14.0 0.00 0.00 0.00 68 1013.6
20260901221055 75 222 6.0 14.0 0.00 0.00 0.00 69 1013.6
20260901220557 75 218 6.0 13.0 0.00 0.00 0.00 70 1013.6
20260901220059 74 163 6.0 13.0 0.00 0.00 0.00 69 1013.7
20260901215556 75 177 6.0 12.0 0.00 0.00 0.00 69 1013.8
20260901215055 75 211 7.0 16.0 0.00 0.00 0.00 69 1013.9
20260901214555 75 250 7.0 16.0 0.00 0.00 0.00 69 1013.9
20260901214055 75 194 7.0 12.0 0.00 0.00 0.00 69 1013.9
20260901213556 75 243 6.0 12.0 0.00 0.00 0.00 69 1014.0
20260901213105 75 274 5.0 10.0 0.00 0.00 0.00 69 1014.0
20260901212555 75 284 4.0 9.0 0.00 0.00 0.00 69 1014.0
20260901212055 75 183 4.0 12.0 0.00 0.00 0.00 69 1013.9
20260901211557 75 296 7.0 12.0 0.00 0.00 0.00 69 1014.1
20260901211054 75 274 5.0 12.0 0.00 0.00 0.00 69 1014.1
20260901210555 75 271 4.0 12.0 0.00 0.00 0.00 69 1014.1
20260901210056 75 219 6.0 11.0 0.00 0.00 0.00 69 1014.1
20260901205555 75 202 6.0 11.0 0.00 0.00 0.00 69 1014.2
20260901205056 74 260 5.0 13.0 0.00 0.00 0.00 69 1014.3
20260901204607 74 271 5.0 13.0 0.00 0.00 0.00 70 1014.3
20260901204055 74 192 4.0 11.0 0.00 0.00 0.00 69 1014.4
20260901203558 74 189 6.0 11.0 0.00 0.00 0.00 70 1014.4
20260901203104 74 250 7.0 11.0 0.00 0.00 0.00 71 1014.2
20260901202555 74 161 5.0 11.0 0.00 0.00 0.00 70 1014.4